DLH925 ENTC-EDDF

Flight info

Callsign DLH925
Flight time 2h 47m
Altitude 40000
Route AMIMO DCT SOMUB DCT EKTAK DCT ARTOR/N0465F390 DCT ALASA DCT RIMET/N0457F310 T157 KOKEB/N0399F230 T157 KERAX KERAX4A
Aircraft A346/H-SDE2E3FGHIJ3J4J5M1RWXY/LB1D1

Departure

Time 2026-04-15 14:05
Airport Tromsø Airport (ENTC)

Arrival

Time 2026-04-15 16:53
Airport Frankfurt Main Airport (EDDF)
Time Latitude Longitude Altitude Speed Heading
2026-04-15 13:48 69.68123 18.90998 43 ft 0 kts 283°
2026-04-15 13:56 69.68120 18.91037 41 ft 0 kts 283°
2026-04-15 13:56 69.68119 18.91053 42 ft 0 kts 283°
2026-04-15 13:57 69.68114 18.91111 39 ft 0 kts 283°
2026-04-15 13:57 69.68108 18.91185 42 ft 0 kts 283°
2026-04-15 13:58 69.68101 18.91254 42 ft 0 kts 294°
2026-04-15 13:58 69.68089 18.91288 40 ft 0 kts 336°
2026-04-15 13:58 69.68071 18.91292 39 ft 0 kts 12°
2026-04-15 13:58 69.68068 18.91291 39 ft 0 kts 14°
2026-04-15 14:00 69.68069 18.91292 44 ft 1 kts 14°
2026-04-15 14:00 69.68105 18.91330 43 ft 9 kts 21°
2026-04-15 14:00 69.68177 18.91397 43 ft 13 kts 13°
2026-04-15 14:01 69.68364 18.91500 42 ft 15 kts
2026-04-15 14:01 69.68449 18.91507 41 ft 14 kts
2026-04-15 14:01 69.68542 18.91562 40 ft 13 kts 13°
2026-04-15 14:02 69.68641 18.91628 40 ft 11 kts 13°
2026-04-15 14:02 69.68730 18.91686 39 ft 12 kts 14°
2026-04-15 14:02 69.68773 18.91817 39 ft 10 kts 85°
2026-04-15 14:02 69.68763 18.92043 38 ft 12 kts 88°
2026-04-15 14:03 69.68811 18.92200 37 ft 11 kts 21°
2026-04-15 14:03 69.68896 18.92264 37 ft 14 kts 13°
2026-04-15 14:03 69.68999 18.92335 37 ft 18 kts 13°
2026-04-15 14:03 69.69125 18.92421 37 ft 15 kts 12°
2026-04-15 14:04 69.69240 18.92495 37 ft 19 kts 12°
2026-04-15 14:04 69.69343 18.92522 37 ft 8 kts
2026-04-15 14:04 69.69352 18.92570 37 ft 2 kts 141°
2026-04-15 14:04 69.69326 18.92557 37 ft 6 kts 195°
2026-04-15 14:05 69.69109 18.92406 37 ft 69 kts 192°
2026-04-15 14:05 69.68402 18.91936 44 ft 136 kts 193°
2026-04-15 14:05 69.67321 18.91224 292 ft 170 kts 194°
2026-04-15 14:05 69.66159 18.90441 1014 ft 173 kts 194°
2026-04-15 14:06 69.64994 18.89638 1889 ft 173 kts 194°
2026-04-15 14:06 69.63783 18.88835 2436 ft 185 kts 193°
2026-04-15 14:06 69.62481 18.88008 2977 ft 197 kts 193°
2026-04-15 14:06 69.61105 18.87128 3465 ft 215 kts 194°
2026-04-15 14:07 69.59570 18.86135 3940 ft 237 kts 194°
2026-04-15 14:07 69.57930 18.84860 4583 ft 249 kts 201°
2026-04-15 14:07 69.56331 18.82919 5535 ft 250 kts 208°
2026-04-15 14:07 69.54778 18.80628 6545 ft 251 kts 209°
2026-04-15 14:08 69.53219 18.78292 7470 ft 254 kts 209°
2026-04-15 14:08 69.51640 18.75928 8413 ft 259 kts 209°
2026-04-15 14:08 69.50034 18.73529 9429 ft 261 kts 208°
2026-04-15 14:08 69.48415 18.71117 10425 ft 264 kts 208°
2026-04-15 14:09 69.46758 18.68669 11226 ft 274 kts 208°
2026-04-15 14:09 69.45032 18.66125 11799 ft 292 kts 208°
2026-04-15 14:09 69.43173 18.63381 12343 ft 310 kts 208°
2026-04-15 14:09 69.41201 18.60478 12843 ft 328 kts 208°
2026-04-15 14:10 69.39137 18.57448 13570 ft 338 kts 208°
2026-04-15 14:10 69.37044 18.54388 14575 ft 339 kts 208°
2026-04-15 14:10 69.34936 18.51308 15479 ft 342 kts 208°
2026-04-15 14:10 69.32794 18.48281 16317 ft 347 kts 206°
2026-04-15 14:11 69.30557 18.45502 17151 ft 353 kts 205°
2026-04-15 14:11 69.28292 18.42693 18008 ft 357 kts 205°
2026-04-15 14:11 69.26006 18.39840 18805 ft 362 kts 205°
2026-04-15 14:11 69.23684 18.36958 19493 ft 367 kts 205°
2026-04-15 14:12 69.21329 18.34046 20192 ft 371 kts 205°
2026-04-15 14:12 69.18949 18.31112 20901 ft 376 kts 205°
2026-04-15 14:12 69.16537 18.28147 21608 ft 380 kts 205°
2026-04-15 14:12 69.14098 18.25155 22317 ft 385 kts 205°
2026-04-15 14:13 69.11625 18.22129 22994 ft 390 kts 206°
2026-04-15 14:13 69.09126 18.19080 23665 ft 394 kts 206°
2026-04-15 14:13 69.06622 18.16033 24273 ft 399 kts 206°
2026-04-15 14:13 69.04061 18.12917 24842 ft 403 kts 206°
2026-04-15 14:14 69.01469 18.09777 25395 ft 408 kts 206°
2026-04-15 14:14 68.98835 18.06594 25934 ft 413 kts 206°
2026-04-15 14:14 68.96186 18.03406 26512 ft 416 kts 205°
2026-04-15 14:14 68.93513 18.00198 27052 ft 421 kts 205°
2026-04-15 14:15 68.90822 17.96895 27569 ft 425 kts 208°
2026-04-15 14:15 68.88167 17.93223 28097 ft 428 kts 211°
2026-04-15 14:15 68.85557 17.89141 28612 ft 432 kts 212°
2026-04-15 14:15 68.82926 17.85017 29159 ft 436 kts 212°
2026-04-15 14:16 68.80258 17.80916 29670 ft 441 kts 211°
2026-04-15 14:16 68.77564 17.76792 30191 ft 445 kts 211°
2026-04-15 14:16 68.74844 17.72631 30764 ft 445 kts 211°
2026-04-15 14:16 68.72135 17.68487 31397 ft 444 kts 211°
2026-04-15 14:17 68.70343 17.65749 31811 ft 443 kts 211°
2026-04-15 14:17 68.66770 17.60298 32561 ft 444 kts 211°
2026-04-15 14:17 68.64069 17.56187 33118 ft 444 kts 211°
2026-04-15 14:17 68.61361 17.52076 33666 ft 444 kts 211°
2026-04-15 14:18 68.58651 17.47975 34167 ft 446 kts 211°
2026-04-15 14:18 68.56811 17.45195 34459 ft 447 kts 211°
2026-04-15 14:18 68.54086 17.41089 34873 ft 448 kts 211°
2026-04-15 14:18 68.51387 17.37034 35308 ft 448 kts 211°
2026-04-15 14:19 68.48648 17.32932 35773 ft 448 kts 211°
2026-04-15 14:19 68.45910 17.28840 36207 ft 449 kts 211°
2026-04-15 14:19 68.43165 17.24747 36596 ft 449 kts 211°
2026-04-15 14:19 68.40419 17.20665 36989 ft 450 kts 211°
2026-04-15 14:20 68.37668 17.16587 37369 ft 451 kts 211°
2026-04-15 14:20 68.34915 17.12518 37734 ft 451 kts 211°
2026-04-15 14:20 68.32151 17.08444 38090 ft 451 kts 211°
2026-04-15 14:20 68.29393 17.04390 38390 ft 452 kts 211°
2026-04-15 14:21 68.26625 17.00331 38712 ft 453 kts 211°
2026-04-15 14:21 68.23855 16.96280 39045 ft 454 kts 211°
2026-04-15 14:21 68.21069 16.92217 39208 ft 456 kts 211°
2026-04-15 14:21 68.18272 16.88147 39377 ft 458 kts 211°
2026-04-15 14:22 68.15457 16.84064 39567 ft 459 kts 211°
2026-04-15 14:22 68.12673 16.80038 39757 ft 461 kts 211°
2026-04-15 14:22 68.09845 16.75961 39942 ft 462 kts 211°
2026-04-15 14:22 68.07005 16.71877 40102 ft 463 kts 211°
2026-04-15 14:23 68.04158 16.67795 40278 ft 464 kts 211°
2026-04-15 14:23 67.98444 16.59636 40321 ft 466 kts 211°
2026-04-15 14:24 67.92723 16.51516 40335 ft 466 kts 211°
2026-04-15 14:24 67.86979 16.43526 40339 ft 467 kts 208°
2026-04-15 14:25 67.81075 16.36318 40352 ft 467 kts 207°
2026-04-15 14:25 67.75187 16.29024 40354 ft 467 kts 208°
2026-04-15 14:26 67.69295 16.21776 40330 ft 467 kts 207°
2026-04-15 14:26 67.63389 16.14576 40337 ft 468 kts 207°
2026-04-15 14:27 67.57514 16.07464 40333 ft 468 kts 207°
2026-04-15 14:27 67.51595 16.00339 40339 ft 468 kts 207°
2026-04-15 14:28 67.45674 15.93253 40342 ft 468 kts 207°
2026-04-15 14:28 67.39748 15.86198 40324 ft 468 kts 207°
2026-04-15 14:29 67.33809 15.79167 40339 ft 469 kts 207°
2026-04-15 14:29 67.27901 15.72214 40341 ft 469 kts 207°
2026-04-15 14:30 67.21957 15.65255 40336 ft 469 kts 207°
2026-04-15 14:30 67.16008 15.58333 40345 ft 469 kts 207°
2026-04-15 14:31 67.10048 15.51428 40347 ft 469 kts 207°
2026-04-15 14:31 67.04097 15.44571 40353 ft 469 kts 207°
2026-04-15 14:32 66.98140 15.37745 40351 ft 469 kts 207°
2026-04-15 14:32 66.92175 15.30948 40361 ft 469 kts 206°
2026-04-15 14:33 66.86202 15.24179 40362 ft 470 kts 206°
2026-04-15 14:33 66.80228 15.17443 40354 ft 469 kts 206°
2026-04-15 14:34 66.74257 15.10748 40366 ft 469 kts 206°
2026-04-15 14:34 66.68322 15.04127 40367 ft 469 kts 206°
2026-04-15 14:35 66.62340 14.97491 40365 ft 469 kts 206°
2026-04-15 14:35 66.56356 14.90886 40366 ft 469 kts 206°
2026-04-15 14:36 66.50375 14.84318 40348 ft 469 kts 206°
2026-04-15 14:36 66.44383 14.77773 40350 ft 469 kts 206°
2026-04-15 14:37 66.38416 14.71294 40346 ft 469 kts 206°
2026-04-15 14:37 66.32423 14.64818 40346 ft 469 kts 206°
2026-04-15 14:38 66.26424 14.58368 40350 ft 469 kts 206°
2026-04-15 14:38 66.20422 14.51949 40336 ft 469 kts 206°
2026-04-15 14:39 66.14405 14.45543 40347 ft 470 kts 205°
2026-04-15 14:39 66.08391 14.39179 40358 ft 470 kts 205°
2026-04-15 14:40 66.02370 14.32841 40356 ft 470 kts 205°
2026-04-15 14:40 65.96354 14.26539 40357 ft 470 kts 205°
2026-04-15 14:41 65.90325 14.20254 40341 ft 471 kts 205°
2026-04-15 14:41 65.84326 14.14032 40348 ft 471 kts 205°
2026-04-15 14:42 65.78282 14.07798 40356 ft 472 kts 205°
2026-04-15 14:42 65.72224 14.01581 40342 ft 472 kts 205°
2026-04-15 14:43 65.66171 13.95400 40343 ft 472 kts 205°
2026-04-15 14:43 65.60106 13.89238 40333 ft 472 kts 205°
2026-04-15 14:44 65.54040 13.83105 40341 ft 473 kts 205°
2026-04-15 14:44 65.47966 13.76998 40350 ft 473 kts 205°
2026-04-15 14:45 65.41892 13.70919 40346 ft 473 kts 205°
2026-04-15 14:45 65.35850 13.64905 40347 ft 473 kts 205°
2026-04-15 14:46 65.29768 13.58879 40341 ft 473 kts 204°
2026-04-15 14:46 65.23667 13.52865 40347 ft 473 kts 204°
2026-04-15 14:47 65.17581 13.46896 40345 ft 473 kts 204°
2026-04-15 14:47 65.11483 13.40945 40344 ft 473 kts 204°
2026-04-15 14:48 65.05387 13.35026 40343 ft 473 kts 204°
2026-04-15 14:48 64.99287 13.29130 40335 ft 473 kts 204°
2026-04-15 14:49 64.93181 13.23259 40344 ft 474 kts 204°
2026-04-15 14:49 64.87070 13.17412 40339 ft 474 kts 204°
2026-04-15 14:50 64.81001 13.11633 40340 ft 474 kts 204°
2026-04-15 14:50 64.74879 13.05830 40328 ft 475 kts 204°
2026-04-15 14:51 64.68739 13.00044 40326 ft 476 kts 204°
2026-04-15 14:51 64.62587 12.94271 40322 ft 476 kts 204°
2026-04-15 14:52 64.56429 12.88513 40327 ft 476 kts 204°
2026-04-15 14:52 64.50266 12.82791 40324 ft 477 kts 204°
2026-04-15 14:53 64.44145 12.77128 40320 ft 476 kts 204°
2026-04-15 14:53 64.37941 12.71422 40315 ft 477 kts 204°
2026-04-15 14:54 64.31808 12.65806 40269 ft 477 kts 204°
2026-04-15 14:54 64.25631 12.60171 40215 ft 477 kts 204°
2026-04-15 14:55 64.19454 12.54574 40167 ft 477 kts 204°
2026-04-15 14:55 64.13267 12.48982 40124 ft 477 kts 204°
2026-04-15 14:56 64.07084 12.43432 40103 ft 477 kts 203°
2026-04-15 14:56 64.00887 12.37895 40112 ft 478 kts 203°
2026-04-15 14:56 63.97794 12.35146 40311 ft 478 kts 204°
2026-04-15 14:57 63.94701 12.32392 40311 ft 478 kts 203°
2026-04-15 14:57 63.88502 12.26908 40311 ft 478 kts 204°
2026-04-15 14:58 63.82314 12.21445 40293 ft 478 kts 203°
2026-04-15 14:58 63.76098 12.16004 40300 ft 479 kts 203°
2026-04-15 14:59 63.69881 12.10570 40301 ft 479 kts 203°
2026-04-15 14:59 63.63691 12.05198 40300 ft 479 kts 204°
2026-04-15 15:00 63.57477 11.99822 40302 ft 479 kts 203°
2026-04-15 15:00 63.51246 11.94442 40302 ft 479 kts 202°
2026-04-15 15:01 63.45000 11.89095 40306 ft 480 kts 203°
2026-04-15 15:01 63.38766 11.83788 40302 ft 480 kts 202°
2026-04-15 15:02 63.32366 11.79391 40304 ft 481 kts 195°
2026-04-15 15:02 63.25850 11.76322 40305 ft 482 kts 193°
2026-04-15 15:03 63.19281 11.73236 40303 ft 483 kts 194°
2026-04-15 15:03 63.12716 11.70161 40307 ft 482 kts 193°
2026-04-15 15:04 63.06135 11.67108 40302 ft 483 kts 193°
2026-04-15 15:04 62.99574 11.64081 40306 ft 482 kts 193°
2026-04-15 15:05 62.94100 11.61569 40302 ft 483 kts 193°
2026-04-15 15:05 62.87516 11.58561 40310 ft 483 kts 193°
2026-04-15 15:06 62.77632 11.54068 40312 ft 483 kts 193°
2026-04-15 15:06 62.71037 11.51093 40311 ft 484 kts 193°
2026-04-15 15:07 62.64439 11.48126 40306 ft 483 kts 193°
2026-04-15 15:07 62.57879 11.45196 40310 ft 484 kts 193°
2026-04-15 15:08 62.51283 11.42255 40314 ft 484 kts 193°
2026-04-15 15:08 62.44682 11.39330 40317 ft 484 kts 193°
2026-04-15 15:09 62.38083 11.36412 40318 ft 484 kts 193°
2026-04-15 15:09 62.31478 11.33506 40313 ft 484 kts 193°
2026-04-15 15:10 62.24925 11.30637 40321 ft 483 kts 193°
2026-04-15 15:10 62.18329 11.27761 40317 ft 484 kts 193°
2026-04-15 15:11 62.11735 11.24896 40314 ft 484 kts 193°
2026-04-15 15:11 62.05123 11.22037 40306 ft 484 kts 193°
2026-04-15 15:12 61.98517 11.19357 40309 ft 484 kts 189°
2026-04-15 15:12 61.91848 11.17290 40307 ft 484 kts 190°
2026-04-15 15:13 61.85225 11.15161 40304 ft 484 kts 190°
2026-04-15 15:13 61.78557 11.13034 40305 ft 484 kts 190°
2026-04-15 15:14 61.71888 11.10924 40301 ft 484 kts 189°
2026-04-15 15:14 61.65220 11.08829 40308 ft 484 kts 189°
2026-04-15 15:15 61.58555 11.06745 40296 ft 484 kts 189°
2026-04-15 15:15 61.51891 11.04670 40297 ft 484 kts 189°
2026-04-15 15:16 61.45219 11.02602 40288 ft 484 kts 189°
2026-04-15 15:16 61.38593 11.00557 40279 ft 484 kts 189°
2026-04-15 15:17 61.31932 10.98510 40280 ft 484 kts 189°
2026-04-15 15:17 61.25262 10.96469 40283 ft 484 kts 189°
2026-04-15 15:18 61.18594 10.94437 40287 ft 484 kts 189°
2026-04-15 15:18 61.11920 10.92412 40275 ft 484 kts 189°
2026-04-15 15:19 61.05249 10.90396 40282 ft 484 kts 189°
2026-04-15 15:19 60.98579 10.88390 40276 ft 484 kts 189°
2026-04-15 15:20 60.91904 10.86391 40281 ft 484 kts 189°
2026-04-15 15:20 60.85232 10.84403 40263 ft 484 kts 189°
2026-04-15 15:21 60.78556 10.82419 40276 ft 484 kts 189°
2026-04-15 15:21 60.71927 10.80457 40273 ft 484 kts 189°
2026-04-15 15:22 60.65266 10.78494 40260 ft 484 kts 189°
2026-04-15 15:22 60.58594 10.76540 40262 ft 484 kts 189°
2026-04-15 15:23 60.51919 10.74591 40265 ft 484 kts 190°
2026-04-15 15:23 60.45245 10.72647 40266 ft 484 kts 189°
2026-04-15 15:24 60.38561 10.70710 40261 ft 484 kts 189°
2026-04-15 15:24 60.31886 10.68784 40245 ft 484 kts 190°
2026-04-15 15:25 60.25208 10.66869 40254 ft 484 kts 190°
2026-04-15 15:25 60.18531 10.64957 40261 ft 484 kts 190°
2026-04-15 15:26 60.11858 10.63054 40259 ft 484 kts 190°
2026-04-15 15:26 60.05221 10.61171 40259 ft 485 kts 190°
2026-04-15 15:27 59.98534 10.59284 40254 ft 485 kts 190°
2026-04-15 15:27 59.91849 10.57401 40257 ft 485 kts 190°
2026-04-15 15:28 59.85159 10.55524 40257 ft 485 kts 190°
2026-04-15 15:28 59.78464 10.53654 40258 ft 485 kts 190°
2026-04-15 15:29 59.71773 10.51795 40258 ft 486 kts 190°
2026-04-15 15:29 59.65066 10.49935 40267 ft 486 kts 190°
2026-04-15 15:30 59.58397 10.48093 40263 ft 486 kts 190°
2026-04-15 15:30 59.51692 10.46253 40263 ft 487 kts 190°
2026-04-15 15:31 59.44976 10.44416 40252 ft 487 kts 190°
2026-04-15 15:31 59.38265 10.42589 40258 ft 487 kts 190°
2026-04-15 15:32 59.31547 10.40763 40260 ft 487 kts 190°
2026-04-15 15:32 59.28184 10.39852 40121 ft 487 kts 190°
2026-04-15 15:32 59.24870 10.38957 40128 ft 487 kts 190°
2026-04-15 15:33 59.18144 10.37146 40134 ft 487 kts 190°
2026-04-15 15:33 59.11426 10.35345 40176 ft 487 kts 190°
2026-04-15 15:34 59.04705 10.33548 40247 ft 487 kts 190°
2026-04-15 15:34 58.97989 10.31760 40242 ft 487 kts 190°
2026-04-15 15:35 58.91276 10.29979 40241 ft 487 kts 190°
2026-04-15 15:35 58.84560 10.28209 40234 ft 487 kts 190°
2026-04-15 15:36 58.77848 10.26441 40240 ft 487 kts 190°
2026-04-15 15:36 58.71129 10.24679 40245 ft 487 kts 190°
2026-04-15 15:37 58.64414 10.22925 40245 ft 487 kts 190°
2026-04-15 15:37 58.57736 10.21188 40238 ft 487 kts 190°
2026-04-15 15:38 58.51030 10.19448 40242 ft 486 kts 190°
2026-04-15 15:38 58.44317 10.17711 40241 ft 486 kts 190°
2026-04-15 15:39 58.37608 10.15984 40242 ft 486 kts 190°
2026-04-15 15:39 58.30864 10.14763 40241 ft 488 kts 184°
2026-04-15 15:40 58.24067 10.14409 40246 ft 488 kts 184°
2026-04-15 15:40 58.17270 10.14008 40245 ft 488 kts 184°
2026-04-15 15:41 58.10518 10.13612 40242 ft 488 kts 184°
2026-04-15 15:41 58.03729 10.13219 40236 ft 488 kts 184°
2026-04-15 15:42 57.96944 10.12829 40238 ft 488 kts 184°
2026-04-15 15:42 57.90159 10.12442 40242 ft 488 kts 184°
2026-04-15 15:43 57.83369 10.12056 40241 ft 487 kts 184°
2026-04-15 15:43 57.76591 10.11671 40228 ft 487 kts 184°
2026-04-15 15:44 57.69807 10.11288 40237 ft 487 kts 184°
2026-04-15 15:44 57.63059 10.10910 40243 ft 487 kts 184°
2026-04-15 15:45 57.56278 10.10530 40238 ft 487 kts 184°
2026-04-15 15:45 57.49471 10.10148 40228 ft 487 kts 184°
2026-04-15 15:46 57.42702 10.09771 40236 ft 487 kts 184°
2026-04-15 15:46 57.35930 10.09399 40236 ft 487 kts 184°
2026-04-15 15:47 57.29156 10.09025 40234 ft 487 kts 184°
2026-04-15 15:47 57.22379 10.08653 40226 ft 486 kts 184°
2026-04-15 15:48 57.15618 10.08282 40233 ft 486 kts 184°
2026-04-15 15:48 57.08904 10.07916 40235 ft 486 kts 184°
2026-04-15 15:49 57.02139 10.07560 40243 ft 487 kts 184°
2026-04-15 15:49 56.95348 10.07186 40221 ft 488 kts 184°
2026-04-15 15:50 56.88557 10.06814 40225 ft 488 kts 184°
2026-04-15 15:50 56.81771 10.06449 40225 ft 488 kts 184°
2026-04-15 15:51 56.74976 10.06085 40220 ft 488 kts 184°
2026-04-15 15:51 56.68195 10.05723 40216 ft 488 kts 184°
2026-04-15 15:52 56.61453 10.05365 40222 ft 487 kts 184°
2026-04-15 15:52 56.54669 10.05005 40225 ft 487 kts 184°
2026-04-15 15:53 56.49038 10.04707 40223 ft 487 kts 184°
2026-04-15 15:53 56.42257 10.04351 40199 ft 487 kts 184°
2026-04-15 15:54 56.35465 10.03996 40214 ft 488 kts 184°
2026-04-15 15:54 56.28673 10.03639 40218 ft 488 kts 184°
2026-04-15 15:55 56.21875 10.03284 40221 ft 488 kts 184°
2026-04-15 15:55 56.15129 10.02935 40204 ft 488 kts 184°
2026-04-15 15:56 56.08337 10.02585 40218 ft 488 kts 184°
2026-04-15 15:56 56.01546 10.02233 40220 ft 488 kts 184°
2026-04-15 15:57 55.94745 10.01882 40224 ft 488 kts 184°
2026-04-15 15:57 55.87952 10.01535 40216 ft 488 kts 184°
2026-04-15 15:58 55.81153 10.01190 40224 ft 488 kts 185°
2026-04-15 15:58 55.74362 10.00843 40222 ft 488 kts 185°
2026-04-15 15:59 55.67615 10.00499 40223 ft 488 kts 184°
2026-04-15 15:59 55.60781 10.00154 40224 ft 488 kts 184°
2026-04-15 16:00 55.54034 9.99815 40222 ft 488 kts 185°
2026-04-15 16:00 55.47235 9.99473 40217 ft 488 kts 185°
2026-04-15 16:01 55.40438 9.99132 40225 ft 488 kts 184°
2026-04-15 16:01 55.33642 9.98797 40220 ft 488 kts 185°
2026-04-15 16:02 55.26850 9.98455 40230 ft 489 kts 184°
2026-04-15 16:02 55.20042 9.98117 40217 ft 490 kts 184°
2026-04-15 16:03 55.13228 9.97781 40212 ft 490 kts 184°
2026-04-15 16:03 55.06424 9.97447 40210 ft 489 kts 185°
2026-04-15 16:04 54.99612 9.97110 40206 ft 489 kts 185°
2026-04-15 16:04 54.92804 9.96773 40211 ft 489 kts 185°
2026-04-15 16:05 54.86042 9.96440 40211 ft 489 kts 185°
2026-04-15 16:05 54.79236 9.96324 40201 ft 490 kts 181°
2026-04-15 16:06 54.72413 9.96897 40209 ft 490 kts 180°
2026-04-15 16:06 54.65603 9.97440 40206 ft 490 kts 180°
2026-04-15 16:07 54.58781 9.97982 40191 ft 490 kts 180°
2026-04-15 16:08 54.48578 9.98792 40206 ft 489 kts 180°
2026-04-15 16:08 54.41780 9.99328 40208 ft 489 kts 180°
2026-04-15 16:09 54.35022 9.99860 40210 ft 489 kts 180°
2026-04-15 16:09 54.28232 10.00397 40201 ft 488 kts 181°
2026-04-15 16:10 54.21447 10.00927 40197 ft 487 kts 181°
2026-04-15 16:10 54.14668 10.01454 40195 ft 487 kts 181°
2026-04-15 16:11 54.07891 10.01981 40173 ft 487 kts 181°
2026-04-15 16:11 54.01117 10.02506 40179 ft 486 kts 181°
2026-04-15 16:12 53.94365 10.03028 40180 ft 486 kts 181°
2026-04-15 16:12 53.87583 10.03550 40182 ft 486 kts 181°
2026-04-15 16:13 53.80856 10.04066 40167 ft 486 kts 181°
2026-04-15 16:13 53.74083 10.04584 40181 ft 486 kts 181°
2026-04-15 16:14 53.67324 10.05100 40179 ft 485 kts 181°
2026-04-15 16:14 53.60565 10.05615 40183 ft 485 kts 181°
2026-04-15 16:15 53.53853 10.06126 40169 ft 484 kts 181°
2026-04-15 16:15 53.47130 10.06634 40178 ft 483 kts 181°
2026-04-15 16:16 53.40402 10.07139 40177 ft 483 kts 181°
2026-04-15 16:16 53.33674 10.07644 40176 ft 483 kts 181°
2026-04-15 16:17 53.26932 10.08148 40173 ft 485 kts 181°
2026-04-15 16:17 53.20183 10.08651 40178 ft 486 kts 181°
2026-04-15 16:18 53.13435 10.09153 40181 ft 486 kts 181°
2026-04-15 16:18 53.06683 10.09654 40180 ft 486 kts 181°
2026-04-15 16:19 52.99933 10.10153 40184 ft 486 kts 181°
2026-04-15 16:19 52.93175 10.10650 40184 ft 486 kts 181°
2026-04-15 16:20 52.86472 10.11143 40183 ft 485 kts 181°
2026-04-15 16:20 52.79716 10.11634 40175 ft 486 kts 181°
2026-04-15 16:21 52.72932 10.12127 40176 ft 489 kts 180°
2026-04-15 16:21 52.66131 10.12625 40181 ft 489 kts 180°
2026-04-15 16:22 52.59334 10.13120 40183 ft 489 kts 180°
2026-04-15 16:22 52.52539 10.13611 40177 ft 488 kts 180°
2026-04-15 16:23 52.45803 10.14097 40182 ft 488 kts 180°
2026-04-15 16:23 52.39027 10.14584 40180 ft 487 kts 180°
2026-04-15 16:24 52.32246 10.15070 40163 ft 487 kts 180°
2026-04-15 16:24 52.25473 10.15552 40175 ft 487 kts 180°
2026-04-15 16:25 52.18694 10.16036 40175 ft 487 kts 180°
2026-04-15 16:25 52.11926 10.16516 40178 ft 487 kts 180°
2026-04-15 16:26 52.05162 10.16995 40168 ft 486 kts 180°
2026-04-15 16:26 51.98418 10.17471 40175 ft 485 kts 180°
2026-04-15 16:27 51.91653 10.17946 40178 ft 485 kts 180°
2026-04-15 16:27 51.84904 10.18419 40176 ft 485 kts 180°
2026-04-15 16:28 51.78150 10.18888 40176 ft 485 kts 180°
2026-04-15 16:28 51.71447 10.19356 40179 ft 485 kts 180°
2026-04-15 16:29 51.64657 10.19826 39674 ft 488 kts 180°
2026-04-15 16:29 51.61248 10.20060 38977 ft 492 kts 180°
2026-04-15 16:29 51.57817 10.20295 38135 ft 496 kts 180°
2026-04-15 16:29 51.54357 10.20534 37330 ft 499 kts 180°
2026-04-15 16:30 51.50879 10.20775 36535 ft 501 kts 180°
2026-04-15 16:30 51.47386 10.21016 35767 ft 504 kts 180°
2026-04-15 16:30 51.43876 10.21255 35037 ft 505 kts 180°
2026-04-15 16:30 51.40355 10.21495 34313 ft 507 kts 180°
2026-04-15 16:31 51.36823 10.21736 33509 ft 507 kts 180°
2026-04-15 16:31 51.33339 10.21931 32697 ft 507 kts 182°
2026-04-15 16:31 51.29813 10.21894 31931 ft 506 kts 184°
2026-04-15 16:31 51.26292 10.21821 31178 ft 506 kts 183°
2026-04-15 16:32 51.22778 10.21751 30444 ft 505 kts 183°
2026-04-15 16:32 51.19266 10.21680 29625 ft 504 kts 183°
2026-04-15 16:32 51.15757 10.21610 28795 ft 502 kts 183°
2026-04-15 16:32 51.12267 10.21544 27970 ft 500 kts 183°
2026-04-15 16:33 51.08788 10.21483 27207 ft 495 kts 183°
2026-04-15 16:33 51.05388 10.21428 26249 ft 481 kts 183°
2026-04-15 16:33 51.02109 10.21375 25589 ft 461 kts 183°
2026-04-15 16:33 50.98944 10.21319 25103 ft 453 kts 183°
2026-04-15 16:34 50.95801 10.21257 24520 ft 450 kts 183°
2026-04-15 16:34 50.92682 10.21197 23977 ft 447 kts 183°
2026-04-15 16:34 50.89577 10.21139 23351 ft 444 kts 183°
2026-04-15 16:34 50.86507 10.20965 22667 ft 439 kts 189°
2026-04-15 16:35 50.83590 10.19778 22037 ft 430 kts 204°
2026-04-15 16:35 50.80993 10.17533 21399 ft 423 kts 217°
2026-04-15 16:35 50.78740 10.14595 20759 ft 417 kts 226°
2026-04-15 16:35 50.76845 10.11157 20138 ft 412 kts 235°
2026-04-15 16:36 50.75362 10.07382 19530 ft 408 kts 243°
2026-04-15 16:36 50.74055 10.03356 18939 ft 404 kts 244°
2026-04-15 16:36 50.72805 9.99398 18366 ft 401 kts 244°
2026-04-15 16:36 50.71579 9.95519 17724 ft 397 kts 244°
2026-04-15 16:37 50.70332 9.91593 17086 ft 394 kts 244°
2026-04-15 16:37 50.69100 9.87737 16469 ft 391 kts 244°
2026-04-15 16:37 50.67863 9.83879 15854 ft 388 kts 244°
2026-04-15 16:37 50.66646 9.80093 15262 ft 385 kts 244°
2026-04-15 16:38 50.65435 9.76341 14710 ft 381 kts 243°
2026-04-15 16:38 50.64204 9.72655 14155 ft 379 kts 239°
2026-04-15 16:38 50.62589 9.69380 13550 ft 377 kts 227°
2026-04-15 16:38 50.60587 9.66738 12938 ft 375 kts 215°
2026-04-15 16:39 50.58294 9.64804 12344 ft 374 kts 205°
2026-04-15 16:39 50.56700 9.63792 11977 ft 371 kts 203°
2026-04-15 16:39 50.54303 9.62334 11463 ft 367 kts 202°
2026-04-15 16:39 50.51934 9.60872 10805 ft 364 kts 203°
2026-04-15 16:40 50.49625 9.59432 10187 ft 348 kts 203°
2026-04-15 16:40 50.47435 9.58065 9762 ft 332 kts 203°
2026-04-15 16:40 50.45305 9.56726 9319 ft 328 kts 203°
2026-04-15 16:40 50.43201 9.55394 8890 ft 324 kts 203°
2026-04-15 16:41 50.41125 9.54070 8465 ft 320 kts 203°
2026-04-15 16:41 50.39082 9.52723 8056 ft 316 kts 207°
2026-04-15 16:41 50.37301 9.50755 7639 ft 312 kts 221°
2026-04-15 16:41 50.35693 9.48503 7331 ft 306 kts 223°
2026-04-15 16:42 50.34175 9.46248 7175 ft 294 kts 228°
2026-04-15 16:42 50.33007 9.43659 7178 ft 290 kts 239°
2026-04-15 16:42 50.31999 9.40915 7175 ft 290 kts 240°
2026-04-15 16:42 50.31006 9.38172 7161 ft 285 kts 240°
2026-04-15 16:43 50.30039 9.35555 7158 ft 270 kts 239°
2026-04-15 16:43 50.29090 9.33033 7169 ft 268 kts 239°
2026-04-15 16:43 50.28132 9.30527 7170 ft 268 kts 239°
2026-04-15 16:43 50.27166 9.28022 7149 ft 269 kts 238°
2026-04-15 16:44 50.26198 9.25524 6888 ft 268 kts 238°
2026-04-15 16:44 50.25231 9.23041 6670 ft 267 kts 238°
2026-04-15 16:44 50.24265 9.20564 6448 ft 266 kts 238°
2026-04-15 16:44 50.23313 9.18132 6234 ft 265 kts 238°
2026-04-15 16:45 50.22338 9.15642 6021 ft 264 kts 238°
2026-04-15 16:45 50.21379 9.13194 5808 ft 264 kts 238°
2026-04-15 16:45 50.20419 9.10746 5606 ft 264 kts 238°
2026-04-15 16:45 50.19471 9.08333 5394 ft 263 kts 238°
2026-04-15 16:46 50.18509 9.05889 5203 ft 263 kts 237°
2026-04-15 16:46 50.17552 9.03459 5025 ft 263 kts 237°
2026-04-15 16:46 50.16592 9.01025 5015 ft 263 kts 237°
2026-04-15 16:46 50.15598 8.98624 5011 ft 263 kts 236°
2026-04-15 16:47 50.14698 8.96135 5007 ft 264 kts 244°
2026-04-15 16:47 50.14045 8.93449 5007 ft 265 kts 251°
2026-04-15 16:47 50.13497 8.90769 4995 ft 252 kts 251°
2026-04-15 16:47 50.12952 8.88242 4986 ft 238 kts 249°
2026-04-15 16:48 50.12409 8.85875 4938 ft 226 kts 248°
2026-04-15 16:48 50.11865 8.83599 4688 ft 223 kts 248°
2026-04-15 16:48 50.11322 8.81363 4394 ft 222 kts 248°
2026-04-15 16:48 50.10778 8.79128 4104 ft 217 kts 248°
2026-04-15 16:49 50.10245 8.76940 3721 ft 212 kts 248°
2026-04-15 16:49 50.09736 8.74838 3416 ft 203 kts 248°
2026-04-15 16:49 50.09245 8.72808 3173 ft 198 kts 248°
2026-04-15 16:49 50.08766 8.70823 2879 ft 192 kts 248°
2026-04-15 16:50 50.08304 8.68905 2597 ft 184 kts 248°
2026-04-15 16:50 50.07867 8.67081 2337 ft 175 kts 248°
2026-04-15 16:50 50.07451 8.65350 2078 ft 165 kts 248°
2026-04-15 16:50 50.07064 8.63738 1835 ft 153 kts 248°
2026-04-15 16:51 50.06696 8.62208 1633 ft 151 kts 249°
2026-04-15 16:51 50.06331 8.60691 1428 ft 149 kts 249°
2026-04-15 16:51 50.05975 8.59177 1233 ft 148 kts 249°
2026-04-15 16:51 50.05616 8.57671 1012 ft 148 kts 248°
2026-04-15 16:52 50.05255 8.56168 794 ft 148 kts 249°
2026-04-15 16:52 50.04896 8.54679 584 ft 147 kts 249°
2026-04-15 16:52 50.04542 8.53198 383 ft 145 kts 250°
2026-04-15 16:52 50.04229 8.51891 355 ft 91 kts 250°
2026-04-15 16:53 50.04122 8.51448 357 ft 16 kts 249°
2026-04-15 16:53 50.04079 8.51267 357 ft 19 kts 249°
2026-04-15 16:53 50.04019 8.51098 358 ft 17 kts 235°
2026-04-15 16:53 50.03937 8.50958 358 ft 14 kts 221°
2026-04-15 16:54 50.03870 8.50872 357 ft 12 kts 217°
2026-04-15 16:54 50.03831 8.50844 358 ft 0 kts 184°
2026-04-15 16:54 50.03827 8.50844 357 ft 5 kts 181°
2026-04-15 16:54 50.03790 8.50886 354 ft 9 kts 109°
2026-04-15 16:55 50.03801 8.51005 356 ft 13 kts 70°
2026-04-15 16:55 50.03837 8.51161 358 ft 17 kts 69°
2026-04-15 16:55 50.03875 8.51319 355 ft 17 kts 69°
2026-04-15 16:55 50.03920 8.51507 352 ft 20 kts 69°
2026-04-15 16:56 50.03967 8.51704 357 ft 18 kts 70°
2026-04-15 16:56 50.04014 8.51899 358 ft 19 kts 69°
2026-04-15 16:56 50.04056 8.52077 356 ft 18 kts 70°
2026-04-15 16:56 50.04103 8.52276 358 ft 21 kts 70°
2026-04-15 16:57 50.04148 8.52455 357 ft 19 kts 69°
2026-04-15 16:57 50.04195 8.52653 354 ft 17 kts 70°
2026-04-15 16:57 50.04233 8.52814 353 ft 15 kts 69°
2026-04-15 16:57 50.04275 8.52990 352 ft 19 kts 69°
2026-04-15 16:58 50.04322 8.53186 356 ft 18 kts 70°
2026-04-15 16:58 50.04361 8.53349 358 ft 16 kts 69°
2026-04-15 16:58 50.04395 8.53531 356 ft 15 kts 82°
2026-04-15 16:58 50.04405 8.53675 352 ft 14 kts 84°
2026-04-15 16:59 50.04416 8.53827 350 ft 15 kts 84°
2026-04-15 16:59 50.04425 8.53974 350 ft 15 kts 84°
2026-04-15 16:59 50.04436 8.54140 352 ft 16 kts 84°
2026-04-15 16:59 50.04447 8.54301 356 ft 15 kts 84°
2026-04-15 17:00 50.04450 8.54476 356 ft 15 kts 98°
2026-04-15 17:00 50.04413 8.54631 355 ft 15 kts 122°
2026-04-15 17:00 50.04348 8.54734 357 ft 14 kts 144°
2026-04-15 17:00 50.04268 8.54796 357 ft 14 kts 160°
2026-04-15 17:01 50.04174 8.54849 357 ft 13 kts 160°
2026-04-15 17:01 50.04084 8.54900 352 ft 14 kts 160°
2026-04-15 17:01 50.04024 8.55007 358 ft 14 kts 90°
2026-04-15 17:01 50.04053 8.55165 357 ft 14 kts 69°
2026-04-15 17:02 50.04093 8.55331 355 ft 18 kts 70°
2026-04-15 17:02 50.04142 8.55535 356 ft 18 kts 69°
2026-04-15 17:02 50.04183 8.55705 355 ft 15 kts 69°
2026-04-15 17:02 50.04220 8.55861 357 ft 13 kts 69°
2026-04-15 17:03 50.04288 8.55947 354 ft 15 kts 358°
2026-04-15 17:03 50.04377 8.55915 358 ft 11 kts 351°
2026-04-15 17:03 50.04467 8.55930 355 ft 12 kts 16°
2026-04-15 17:03 50.04545 8.55979 355 ft 14 kts 38°
2026-04-15 17:04 50.04582 8.56082 358 ft 12 kts 69°
2026-04-15 17:04 50.04607 8.56181 356 ft 9 kts 69°
2026-04-15 17:04 50.04625 8.56254 353 ft 3 kts 69°
2026-04-15 17:04 50.04642 8.56294 355 ft 6 kts 33°
2026-04-15 17:05 50.04687 8.56293 354 ft 6 kts 344°
2026-04-15 17:05 50.04713 8.56281 357 ft 5 kts 342°